Starlink 4525

operational
NORAD ID: 53401 Int'l Des: 2022-097 Owner: SPXS Country: US Constellation: starlink
LEOCIRCULAR

About Starlink 4525

Description loading...

Live Position

Loading 3D Globe...

Upcoming Passes

Altitude History

Altitude vs Time

uPlot chart will show altitude changes over time

Two-Line Element Set

1 53401U 22097P 26102.92906812 -.00000184 00000-0 65545-5 0 9995
2 53401 53.2192 330.4155 0001438 86.8607 273.2550 15.08835074203683
Epoch: Apr 12, 2026 • Age: 7 hours

Current Status

Altitude 545.3 km
Velocity 7.60 km/s
Sub-Earth Point 53.07°N, 133.87°E
Launch Date Aug 10, 2022
Age 3.6 years
Type internet

Technical Details

Classification Payload
Mass 297.00 kg
Dry Mass 275.00 kg
Total Mass 297.00 kg
Length 0.20 m
Diameter 2.80 m
Span 9.00 m
Shape Box + pan
Manufacturer SPXS
Bus Type Starlink
Phase Status In Orbit
Owner/State SPXS/US

Large Constellations

Loading constellations...